Location: Ajisawe
(8.4333°N, 4.3833°E)
Time: 22:39:08
(UTC+00:00)

Vanguard 2 Rocket - Pass Details

Date: 22 April 2021
Orbit: 554 x 3326 km, 32.9° (Epoch: 16 May)

Event Time Altitude Azimuth Distance (km) Brightness Sun altitude
Rises 10:12:56 0° 243° (WSW) 4,714 10.3 68.0°
Reaches altitude 10° 10:15:32 10° 245° (WSW) 4,022 10.1 68.6°
Maximum altitude 10:27:10 74° 328° (NNW) 2,575 10.5 71.4°
Drops below altitude 10° 10:46:19 10° 52° (NE) 6,202 11.5 76.0°
Sets 10:51:29 0° 54° (NE) 7,305 11.7 77.2°
